FW9002 Weather Reports


time (UTC)temp
C
wind
direction
speed
KPH
gust
KPH
rain 1hr
cm
rain 24hr
cm
rain mn
cm
humidity
%
barometer
mb
20260903140035 26 287 0.0 0.0 0.00 0.00 0.00 59 1015.2
20260903135530 26 295 0.0 0.0 0.00 0.00 0.00 61 1015.3
20260903135025 26 295 0.0 0.0 0.00 0.00 0.00 62 1015.4
20260903134525 26 324 1.6 1.6 0.00 0.00 0.00 61 1015.0
20260903134021 26 335 1.6 1.6 0.00 0.00 0.00 62 1015.0
20260903133518 26 93 0.0 1.6 0.00 0.00 0.00 66 1015.0
20260903133013 25 92 0.0 0.0 0.00 0.00 0.00 68 1015.0
20260903132508 25 92 0.0 0.0 0.00 0.00 0.00 68 1015.0
20260903132003 25 93 0.0 0.0 0.00 0.00 0.00 69 1014.9
20260903131458 25 93 0.0 0.0 0.00 0.00 0.00 70 1014.8
20260903130956 25 93 0.0 0.0 0.00 0.00 0.00 68 1014.7
20260903130452 25 93 0.0 0.0 0.00 0.00 0.00 69 1014.7
20260903125951 25 93 0.0 0.0 0.00 0.00 0.00 68 1014.7
20260903125450 25 93 0.0 0.0 0.00 0.00 0.00 68 1014.6
20260903124945 25 93 0.0 0.0 0.00 0.00 0.00 67 1014.6
20260903124440 25 93 0.0 0.0 0.00 0.00 0.00 67 1014.6
20260903123939 25 93 0.0 0.0 0.00 0.00 0.00 68 1014.5
20260903123434 25 93 0.0 0.0 0.00 0.00 0.00 67 1014.4
20260903122932 25 93 0.0 0.0 0.00 0.00 0.00 66 1014.3
20260903122427 26 93 0.0 0.0 0.00 0.00 0.00 66 1014.3
20260903121925 26 93 0.0 0.0 0.00 0.00 0.00 66 1014.2
20260903121421 25 93 0.0 0.0 0.00 0.00 0.00 66 1014.4
20260903120917 25 92 0.0 0.0 0.00 0.00 0.00 67 1014.3
20260903120416 25 92 0.0 0.0 0.00 0.00 0.00 67 1014.3
20260903115915 26 92 0.0 0.0 0.00 0.00 0.00 67 1014.0
20260903115414 26 92 0.0 0.0 0.00 0.00 0.00 66 1014.0
20260903114909 26 92 0.0 0.0 0.00 0.00 0.00 66 1013.8
20260903114405 26 92 0.0 0.0 0.00 0.00 0.00 66 1014.0
20260903113901 26 92 0.0 0.0 0.00 0.00 0.00 66 1014.0
20260903113356 26 97 1.6 1.6 0.00 0.00 0.00 66 1014.1
20260903112852 26 103 0.0 0.0 0.00 0.00 0.00 66 1014.2
20260903112347 26 85 0.0 0.0 0.00 0.00 0.00 66 1014.0
20260903111846 26 92 0.0 0.0 0.00 0.00 0.00 65 1014.0
20260903111346 26 79 1.6 1.6 0.00 0.00 0.00 65 1014.2
20260903110842 26 73 1.6 1.6 0.00 0.00 0.00 65 1014.1
20260903110337 26 80 1.6 1.6 0.00 0.00 0.00 65 1014.2
20260903105832 26 85 1.6 1.6 0.00 0.00 0.00 66 1014.4
20260903105333 26 98 1.6 1.6 0.00 0.00 0.00 66 1013.9
20260903104832 26 92 0.0 1.6 0.00 0.00 0.00 66 1014.1
20260903104327 26 86 1.6 1.6 0.00 0.00 0.00 66 1014.1
20260903103824 26 79 3.2 3.2 0.00 0.00 0.00 66 1014.3
20260903103320 26 80 1.6 1.6 0.00 0.00 0.00 66 1014.2
20260903102815 26 78 1.6 1.6 0.00 0.00 0.00 66 1014.3
20260903102310 26 81 0.0 1.6 0.00 0.00 0.00 66 1014.3
20260903101809 26 83 0.0 0.0 0.00 0.00 0.00 66 1014.2
20260903101304 26 79 3.2 3.2 0.00 0.00 0.00 65 1014.3
20260903100759 26 84 1.6 1.6 0.00 0.00 0.00 66 1014.4
20260903100254 26 96 0.0 0.0 0.00 0.00 0.00 65 1014.1
20260903095751 26 104 1.6 1.6 0.00 0.00 0.00 65 1014.3
20260903095246 26 105 1.6 1.6 0.00 0.00 0.00 65 1014.2
20260903094741 26 116 0.0 0.0 0.00 0.00 0.00 65 1014.2
20260903094236 26 125 0.0 1.6 0.00 0.00 0.00 64 1014.3
20260903093731 26 123 0.0 0.0 0.00 0.00 0.00 64 1014.2
20260903093227 26 127 1.6 1.6 0.00 0.00 0.00 63 1014.2
20260903092726 26 124 1.6 1.6 0.00 0.00 0.00 63 1014.4
20260903092221 26 93 1.6 1.6 0.00 0.00 0.00 63 1014.4
20260903091720 26 117 1.6 1.6 0.00 0.00 0.00 63 1014.5
20260903091215 26 122 0.0 0.0 0.00 0.00 0.00 64 1014.3
20260903090710 26 122 0.0 0.0 0.00 0.00 0.00 63 1014.2
20260903090208 26 125 1.6 1.6 0.00 0.00 0.00 63 1014.2
20260903085707 26 122 0.0 0.0 0.00 0.00 0.00 63 1014.3
20260903085203 26 115 1.6 1.6 0.00 0.00 0.00 63 1014.3
20260903084700 26 109 0.0 0.0 0.00 0.00 0.00 63 1014.6
20260903084155 26 109 1.6 1.6 0.00 0.00 0.00 63 1014.4
20260903083652 26 98 0.0 1.6 0.00 0.00 0.00 63 1014.3
20260903083151 27 98 0.0 0.0 0.00 0.00 0.00 63 1014.3
20260903082645 27 126 1.6 1.6 0.00 0.00 0.00 62 1014.5
20260903082141 27 153 0.0 0.0 0.00 0.00 0.00 62 1014.3
20260903081636 27 154 0.0 0.0 0.00 0.00 0.00 62 1014.3
20260903081132 27 132 1.6 1.6 0.00 0.00 0.00 62 1014.3
20260903080628 27 125 0.0 0.0 0.00 0.00 0.00 62 1014.4
20260903080126 27 125 0.0 0.0 0.00 0.00 0.00 62 1014.6
20260903075624 27 194 0.0 0.0 0.00 0.00 0.00 62 1014.3
20260903075120 27 194 0.0 0.0 0.00 0.00 0.00 61 1014.4
20260903074619 27 195 1.6 1.6 0.00 0.00 0.00 60 1014.6
20260903074114 27 123 0.0 0.0 0.00 0.00 0.00 60 1014.3
20260903073609 27 134 3.2 4.8 0.00 0.00 0.00 60 1014.3
20260903073105 27 98 0.0 0.0 0.00 0.00 0.00 60 1014.4
20260903072601 27 122 1.6 1.6 0.00 0.00 0.00 59 1014.4
20260903072057 27 106 0.0 0.0 0.00 0.00 0.00 59 1014.5
20260903071554 27 102 1.6 1.6 0.00 0.00 0.00 59 1014.5
20260903071054 27 124 1.6 1.6 0.00 0.00 0.00 58 1014.3
20260903070554 27 129 4.8 3.2 0.00 0.00 0.00 58 1014.3
20260903070050 27 117 1.6 1.6 0.00 0.00 0.00 58 1014.2
20260903065548 27 112 1.6 1.6 0.00 0.00 0.00 58 1014.1
20260903065043 27 110 1.6 1.6 0.00 0.00 0.00 58 1014.2
20260903064543 27 112 1.6 1.6 0.00 0.00 0.00 57 1014.3
20260903064038 27 110 1.6 1.6 0.00 0.00 0.00 58 1014.3
20260903063533 27 103 0.0 0.0 0.00 0.00 0.00 58 1014.2
20260903063029 27 103 0.0 0.0 0.00 0.00 0.00 58 1014.2
20260903062524 27 103 0.0 0.0 0.00 0.00 0.00 58 1014.3
20260903062019 27 103 0.0 0.0 0.00 0.00 0.00 57 1014.1
20260903061514 27 105 0.0 0.0 0.00 0.00 0.00 56 1014.3
20260903061009 27 105 0.0 0.0 0.00 0.00 0.00 57 1014.1
20260903060503 27 105 0.0 0.0 0.00 0.00 0.00 56 1014.3
20260903060004 28 105 0.0 0.0 0.00 0.00 0.00 56 1014.1
20260903055501 28 105 0.0 1.6 0.00 0.00 0.00 55 1014.3
20260903055000 28 105 0.0 1.6 0.00 0.00 0.00 55 1014.1
20260903054455 28 105 0.0 0.0 0.00 0.00 0.00 54 1014.3
20260903053951 28 105 1.6 1.6 0.00 0.00 0.00 54 1014.4
20260903053450 28 105 1.6 1.6 0.00 0.00 0.00 53 1014.4
20260903052947 28 105 0.0 0.0 0.00 0.00 0.00 52 1014.3
20260903052443 28 132 1.6 1.6 0.00 0.00 0.00 52 1014.5
20260903051938 28 133 0.0 0.0 0.00 0.00 0.00 52 1014.4
20260903051433 28 123 0.0 0.0 0.00 0.00 0.00 51 1014.5
20260903050929 28 122 1.6 1.6 0.00 0.00 0.00 51 1014.4
20260903050428 28 134 0.0 0.0 0.00 0.00 0.00 51 1014.7
20260903045922 28 152 1.6 1.6 0.00 0.00 0.00 51 1014.5
20260903045418 28 109 1.6 1.6 0.00 0.00 0.00 51 1014.5
20260903044915 28 108 0.0 0.0 0.00 0.00 0.00 51 1014.4
20260903044415 28 108 0.0 0.0 0.00 0.00 0.00 51 1014.5
20260903043912 28 107 0.0 0.0 0.00 0.00 0.00 52 1014.3
20260903043407 28 107 0.0 0.0 0.00 0.00 0.00 51 1014.1
20260903042905 28 106 0.0 0.0 0.00 0.00 0.00 51 1014.0
20260903042401 28 112 0.0 0.0 0.00 0.00 0.00 51 1014.3
20260903041856 28 112 1.6 1.6 0.00 0.00 0.00 51 1014.1
20260903041352 28 112 0.0 0.0 0.00 0.00 0.00 51 1014.1
20260903040848 29 112 0.0 0.0 0.00 0.00 0.00 50 1014.0
20260903040347 29 117 3.2 3.2 0.00 0.00 0.00 50 1014.2
20260903035843 29 185 0.0 0.0 0.00 0.00 0.00 50 1014.1
20260903035338 29 131 1.6 1.6 0.00 0.00 0.00 49 1014.3
20260903034833 29 127 1.6 1.6 0.00 0.00 0.00 48 1014.2
20260903034329 30 88 1.6 1.6 0.00 0.00 0.00 47 1014.1
20260903033824 30 122 1.6 1.6 0.00 0.00 0.00 47 1014.0
20260903033319 30 120 1.6 1.6 0.00 0.00 0.00 47 1014.2
20260903032818 30 123 3.2 1.6 0.00 0.00 0.00 47 1013.8
20260903032315 30 113 3.2 3.2 0.00 0.00 0.00 48 1013.5
20260903031810 29 120 0.0 0.0 0.00 0.00 0.00 50 1013.6
20260903031309 29 121 3.2 1.6 0.00 0.00 0.00 50 1013.6
20260903030805 29 129 1.6 1.6 0.00 0.00 0.00 51 1013.5
20260903030301 28 129 0.0 0.0 0.00 0.00 0.00 52 1013.4
20260903025756 28 129 0.0 0.0 0.00 0.00 0.00 53 1013.5
20260903025252 28 129 0.0 0.0 0.00 0.00 0.00 52 1013.2
20260903024746 28 130 0.0 0.0 0.00 0.00 0.00 53 1013.1
20260903024245 28 130 0.0 0.0 0.00 0.00 0.00 53 1013.1
20260903023741 29 130 0.0 0.0 0.00 0.00 0.00 53 1013.0
20260903023237 29 133 0.0 0.0 0.00 0.00 0.00 52 1013.0
20260903022737 29 140 0.0 0.0 0.00 0.00 0.00 51 1012.9
20260903022235 29 141 1.6 1.6 0.00 0.00 0.00 51 1013.1
20260903021730 30 141 0.0 0.0 0.00 0.00 0.00 50 1012.8
20260903021225 30 141 0.0 0.0 0.00 0.00 0.00 49 1012.8
20260903020725 30 159 0.0 0.0 0.00 0.00 0.00 48 1012.8
20260903020220 30 159 0.0 0.0 0.00 0.00 0.00 47 1012.9
20260903015715 30 158 0.0 0.0 0.00 0.00 0.00 47 1013.0
20260903015211 30 155 1.6 1.6 0.00 0.00 0.00 47 1013.3
20260903014706 30 171 4.8 4.8 0.00 0.00 0.00 46 1013.1
20260903014205 30 203 3.2 3.2 0.00 0.00 0.00 46 1013.1
20260903013700 30 189 0.0 0.0 0.00 0.00 0.00 46 1012.9
20260903013200 31 199 1.6 1.6 0.00 0.00 0.00 45 1013.2
20260903012658 31 170 1.6 1.6 0.00 0.00 0.00 45 1012.7
20260903012158 31 194 1.6 1.6 0.00 0.00 0.00 44 1012.7
20260903011653 31 214 6.4 8.0 0.00 0.00 0.00 44 1012.7
20260903011152 31 212 3.2 3.2 0.00 0.00 0.00 44 1012.7
20260903010648 31 219 6.4 8.0 0.00 0.00 0.00 43 1012.8
20260903010147 31 201 4.8 4.8 0.00 0.00 0.00 43 1012.6
20260903005647 31 205 1.6 3.2 0.00 0.00 0.00 44 1012.5
20260903005142 31 238 8.0 9.7 0.00 0.00 0.00 43 1012.5
20260903004637 31 233 3.2 3.2 0.00 0.00 0.00 43 1012.6
20260903004132 31 232 4.8 8.0 0.00 0.00 0.00 43 1012.6
20260903003627 31 229 8.0 9.7 0.00 0.00 0.00 42 1012.6
20260903003117 31 227 4.8 8.0 0.00 0.00 0.00 40 1012.8
20260903002612 32 247 6.4 8.0 0.00 0.00 0.00 39 1012.8
20260903002112 32 235 4.8 8.0 0.00 0.00 0.00 40 1012.8
20260903001607 32 231 8.0 9.7 0.00 0.00 0.00 39 1012.7
20260903001101 32 243 8.0 11.3 0.00 0.00 0.00 39 1012.9
20260903000556 32 247 8.0 11.3 0.00 0.00 0.00 39 1012.8
20260903000050 32 228 4.8 4.8 0.00 0.00 0.00 38 1013.0
20260902235549 32 190 4.8 9.7 0.00 0.00 0.00 40 1012.7
20260902235044 32 245 8.0 8.0 0.00 0.00 0.00 39 1012.9
20260902234544 32 188 4.8 4.8 0.00 0.00 0.00 39 1012.7
20260902234043 32 185 6.4 9.7 0.00 0.00 0.00 39 1012.7
20260902233538 32 236 8.0 9.7 0.00 0.00 0.00 40 1012.9
20260902233032 33 238 4.8 8.0 0.00 0.00 0.00 38 1012.9
20260902232532 32 188 1.6 3.2 0.00 0.00 0.00 38 1012.8
20260902232026 33 232 6.4 8.0 0.00 0.00 0.00 38 1012.9
20260902231521 33 205 4.8 3.2 0.00 0.00 0.00 39 1013.1
20260902231021 33 167 4.8 4.8 0.00 0.00 0.00 38 1013.1
20260902230520 33 218 4.8 8.0 0.00 0.00 0.00 40 1013.0
20260902230015 33 192 11.3 14.5 0.00 0.00 0.00 37 1013.4
20260902225510 33 228 8.0 12.9 0.00 0.00 0.00 38 1013.1
20260902225004 33 221 8.0 9.7 0.00 0.00 0.00 37 1013.3
20260902224502 32 202 9.7 11.3 0.00 0.00 0.00 37 1013.0
20260902223954 32 174 3.2 3.2 0.00 0.00 0.00 38 1013.4
20260902223449 32 129 1.6 1.6 0.00 0.00 0.00 38 1013.3
20260902222948 32 185 6.4 8.0 0.00 0.00 0.00 37 1013.3
20260902222447 32 188 8.0 11.3 0.00 0.00 0.00 38 1013.3
20260902221947 32 208 8.0 9.7 0.00 0.00 0.00 39 1013.3
20260902221446 32 193 8.0 11.3 0.00 0.00 0.00 39 1013.3
20260902220942 32 200 11.3 12.9 0.00 0.00 0.00 41 1013.8
20260902220441 33 226 8.0 11.3 0.00 0.00 0.00 41 1013.5
20260902215936 32 317 1.6 1.6 0.00 0.00 0.00 39 1013.5
20260902215432 32 291 3.2 4.8 0.00 0.00 0.00 39 1013.5
20260902214928 32 287 1.6 1.6 0.00 0.00 0.00 39 1013.5
20260902214426 32 256 3.2 3.2 0.00 0.00 0.00 39 1013.5
20260902213921 32 293 3.2 3.2 0.00 0.00 0.00 40 1013.5
20260902213417 32 301 3.2 3.2 0.00 0.00 0.00 40 1013.5
20260902212915 33 342 1.6 1.6 0.00 0.00 0.00 39 1013.3
20260902212412 33 310 1.6 3.2 0.00 0.00 0.00 38 1013.4
20260902211908 33 313 8.0 11.3 0.00 0.00 0.00 39 1013.4
20260902211404 33 281 4.8 8.0 0.00 0.00 0.00 39 1013.8
20260902210859 33 280 4.8 4.8 0.00 0.00 0.00 38 1013.9
20260902210358 33 302 4.8 8.0 0.00 0.00 0.00 36 1014.1
20260902205857 33 17 0.0 0.0 0.00 0.00 0.00 36 1013.9
20260902205352 35 283 8.0 9.7 0.00 0.00 0.00 35 1013.9
20260902204848 35 277 4.8 3.2 0.00 0.00 0.00 35 1013.8
20260902204347 35 338 4.8 8.0 0.00 0.00 0.00 37 1014.0
20260902203843 35 7 3.2 3.2 0.00 0.00 0.00 36 1014.0
20260902203338 35 303 6.4 9.7 0.00 0.00 0.00 35 1014.2
20260902202832 36 253 4.8 4.8 0.00 0.00 0.00 35 1014.2
20260902202328 35 313 4.8 8.0 0.00 0.00 0.00 35 1014.1
20260902201825 35 41 6.4 9.7 0.00 0.00 0.00 36 1014.1
20260902201325 35 293 3.2 3.2 0.00 0.00 0.00 36 1014.0
20260902200820 35 278 8.0 9.7 0.00 0.00 0.00 35 1014.3
20260902200315 35 281 3.2 4.8 0.00 0.00 0.00 37 1014.3
20260902195810 35 306 4.8 4.8 0.00 0.00 0.00 37 1014.6
20260902195309 35 295 4.8 9.7 0.00 0.00 0.00 38 1014.4
20260902194804 35 309 1.6 1.6 0.00 0.00 0.00 39 1014.7
20260902194259 34 277 4.8 4.8 0.00 0.00 0.00 39 1014.6
20260902193754 35 316 4.8 8.0 0.00 0.00 0.00 37 1015.0
20260902193250 35 316 4.8 8.0 0.00 0.00 0.00 37 1015.0
20260902192749 35 274 4.8 4.8 0.00 0.00 0.00 38 1014.9
20260902192248 35 257 4.8 8.0 0.00 0.00 0.00 38 1015.3
20260902191747 35 292 1.6 3.2 0.00 0.00 0.00 38 1015.3
20260902191243 35 290 3.2 3.2 0.00 0.00 0.00 39 1015.3
20260902190738 35 313 4.8 4.8 0.00 0.00 0.00 39 1015.5
20260902190237 35 240 6.4 9.7 0.00 0.00 0.00 38 1015.7
20260902185733 34 284 6.4 8.0 0.00 0.00 0.00 38 1015.5
20260902185229 34 245 8.0 9.7 0.00 0.00 0.00 39 1015.7
20260902184724 34 296 3.2 3.2 0.00 0.00 0.00 39 1015.7
20260902184220 34 19 4.8 8.0 0.00 0.00 0.00 39 1015.7
20260902183716 33 258 3.2 1.6 0.00 0.00 0.00 42 1015.7
20260902183212 34 291 3.2 4.8 0.00 0.00 0.00 41 1016.0
20260902182708 34 357 6.4 8.0 0.00 0.00 0.00 40 1016.0
20260902182204 33 312 3.2 4.8 0.00 0.00 0.00 42 1016.1
20260902181659 33 303 4.8 4.8 0.00 0.00 0.00 41 1015.8
20260902181154 33 250 4.8 8.0 0.00 0.00 0.00 41 1016.0
20260902180654 33 306 3.2 4.8 0.00 0.00 0.00 43 1016.3
20260902180150 33 234 3.2 4.8 0.00 0.00 0.00 41 1016.0
20260902175649 33 276 1.6 3.2 0.00 0.00 0.00 42 1016.2
20260902175145 33 293 4.8 4.8 0.00 0.00 0.00 41 1016.2
20260902174641 33 284 4.8 8.0 0.00 0.00 0.00 42 1016.4
20260902174137 32 15 4.8 4.8 0.00 0.00 0.00 43 1016.4
20260902173632 33 327 6.4 9.7 0.00 0.00 0.00 44 1016.4
20260902173127 32 255 3.2 3.2 0.00 0.00 0.00 44 1016.3
20260902172621 33 171 3.2 1.6 0.00 0.00 0.00 44 1016.4
20260902172121 33 270 1.6 3.2 0.00 0.00 0.00 44 1016.7
20260902171616 33 243 3.2 3.2 0.00 0.00 0.00 43 1016.2
20260902171112 33 219 4.8 3.2 0.00 0.00 0.00 43 1016.3
20260902170608 33 85 0.0 0.0 0.00 0.00 0.00 44 1016.2
20260902170103 33 96 0.0 0.0 0.00 0.00 0.00 45 1016.6
20260902165603 33 79 3.2 1.6 0.00 0.00 0.00 44 1016.7
20260902165057 32 96 1.6 1.6 0.00 0.00 0.00 45 1016.7
20260902164553 32 134 3.2 4.8 0.00 0.00 0.00 45 1016.6
20260902164051 32 119 1.6 1.6 0.00 0.00 0.00 44 1016.7
20260902163547 33 191 6.4 8.0 0.00 0.00 0.00 44 1016.6
20260902163045 33 124 1.6 1.6 0.00 0.00 0.00 45 1016.9
20260902162539 32 94 0.0 0.0 0.00 0.00 0.00 46 1016.7
20260902162035 32 133 3.2 4.8 0.00 0.00 0.00 46 1016.8
20260902161535 32 82 1.6 1.6 0.00 0.00 0.00 47 1016.9
20260902161031 32 83 0.0 0.0 0.00 0.00 0.00 46 1016.9
20260902160526 32 97 0.0 0.0 0.00 0.00 0.00 47 1016.6
20260902160021 32 108 1.6 1.6 0.00 0.00 0.00 48 1016.7
20260902155514 31 105 0.0 0.0 0.00 0.00 0.00 47 1016.9
20260902155013 31 86 0.0 0.0 0.00 0.00 0.00 48 1016.6
20260902154509 31 91 3.2 3.2 0.00 0.00 0.00 51 1016.9
20260902154003 30 70 3.2 3.2 0.00 0.00 0.00 52 1016.8
20260902153502 30 84 1.6 1.6 0.00 0.00 0.00 53 1016.8
20260902152957 30 57 3.2 3.2 0.00 0.00 0.00 53 1016.9
20260902152454 30 71 1.6 1.6 0.00 0.00 0.00 52 1016.7
20260902151949 30 91 0.0 0.0 0.00 0.00 0.00 52 1016.7
20260902151445 30 104 0.0 1.6 0.00 0.00 0.00 54 1016.8
20260902150944 28 108 1.6 1.6 0.00 0.00 0.00 56 1016.6
20260902150441 28 63 3.2 3.2 0.00 0.00 0.00 56 1016.4
20260902145940 28 81 3.2 3.2 0.00 0.00 0.00 57 1016.6
20260902145436 28 83 1.6 1.6 0.00 0.00 0.00 59 1016.6
20260902144930 27 65 1.6 1.6 0.00 0.00 0.00 61 1016.3
20260902144426 27 73 1.6 1.6 0.00 0.00 0.00 63 1016.3
20260902143926 28 77 1.6 1.6 0.00 0.00 0.00 60 1016.4
20260902143421 28 88 3.2 3.2 0.00 0.00 0.00 57 1016.4
20260902142917 28 89 0.0 0.0 0.00 0.00 0.00 60 1016.4
20260902142413 28 90 0.0 0.0 0.00 0.00 0.00 60 1016.6
20260902141908 27 90 0.0 0.0 0.00 0.00 0.00 62 1016.4
20260902141403 27 90 0.0 0.0 0.00 0.00 0.00 62 1016.2
20260902140903 27 90 0.0 0.0 0.00 0.00 0.00 61 1016.3